This demonstration page uses our WeatherBlox Daily Observations layout. Learn more.

Left ArrowRight Arrow

44.89941, -97.11507

Hourly Observations for January 4, 2021

Temp ( °F °C ) Dew Point ( °F °C ) Humidity (%) Winds ( mph kmh ) Pressure ( in mb ) Visibility ( mi km ) Precip ( " mm )
12:53 am 00:53 Clear with Mist and Fog 16 -8.9 14 -10 92 92 SSE 7 11 29.79 1009 4 6 0.00 0.00
1:53 am 01:53 Mostly Cloudy with Mist and Fog 17 -8.3 15 -9.4 92 92 SSE 6 9 29.78 1009 5 8 0.00 0.00
2:53 am 02:53 Cloudy with Mist and Fog 19 -7.2 18 -7.8 96 96 SSE 6 9 29.79 1009 5 8 0.00 0.00
3:53 am 03:53 Mostly Clear with Mist and Fog 22 -5.6 20 -6.7 92 92 SW 8 13 29.80 1009 6 10 0.00 0.00
4:53 am 04:53 Clear 34 1.1 28 -2.2 79 79 W 15 24 29.80 1009 10 16 0.00 0.00
5:53 am 05:53 Clear 34 1.1 29 -1.7 82 82 WNW 16 26 29.83 1010 10 16 0.00 0.00
6:53 am 06:53 Clear 32 0 29 -1.7 88 88 WNW 15 24 29.88 1012 10 16 0.00 0.00
7:53 am 07:53 Clear 32 0 29 -1.7 88 88 WNW 14 22 29.92 1013 10 16 0.00 0.00
8:53 am 08:53 Sunny 32 0 29 -1.7 88 88 WNW 14 22 29.96 1015 10 16 0.00 0.00
9:53 am 09:53 Sunny 33 0.6 29 -1.7 85 85 WNW 12 19 29.98 1015 10 16 0.00 0.00
10:53 am 10:53 Sunny 34 1.1 29 -1.7 82 82 WNW 9 15 29.99 1016 10 16 0.00 0.00
11:53 am 11:53 Sunny 35 1.7 29 -1.7 78 78 W 12 19 29.98 1015 10 16 0.00 0.00
12:53 pm 12:53 Sunny 35 1.7 29 -1.7 78 78 W 9 15 29.98 1015 10 16 0.00 0.00
1:53 pm 13:53 Sunny 35 1.7 28 -2.2 76 76 W 12 19 29.98 1015 10 16 0.00 0.00
2:53 pm 14:53 Sunny 34 1.1 28 -2.2 79 79 W 13 20 30.00 1016 10 16 0.00 0.00
3:53 pm 15:53 Sunny 34 1.1 28 -2.2 79 79 W 10 17 30.01 1016 10 16 0.00 0.00
4:53 pm 16:53 Sunny 31 -0.6 25 -3.9 79 79 W 9 15 30.01 1016 10 16 0.00 0.00
5:53 pm 17:53 Clear 27 -2.8 23 -5 85 85 Calm 30.02 1017 10 16 0.00 0.00
6:53 pm 18:53 Clear 25 -3.9 22 -5.6 88 88 W 5 7 30.03 1017 10 16 0.00 0.00
7:53 pm 19:53 Clear 23 -5 20 -6.7 88 88 SW 5 7 30.03 1017 10 16 0.00 0.00
8:53 pm 20:53 Clear 20 -6.7 18 -7.8 92 92 SW 7 11 30.03 1017 10 16 0.00 0.00
9:53 pm 21:53 Clear 22 -5.6 20 -6.7 92 92 SW 8 13 30.03 1017 10 16 0.00 0.00
10:53 pm 22:53 Clear 19 -7.2 18 -7.8 96 96 Calm 30.02 1017 10 16 0.00 0.00
11:53 pm 23:53 Clear with Mist and Fog 15 -9.4 14 -10 95 95 SSE 5 7 30.04 1017 3 4 0.00 0.00

Powered by AerisWeather